• In Hungary
  • List of Countries
  • For 7 days
  • Water Temperature
  • Satellite Maps
  • Weather Map
  • News
  • Weather Widgets
  • user-avatar
    Login

    Hourly Weather Lowech

    Today, 21 October, Sunday

    Time Temperature Precipitation Wind Pressure Humidity
    00:00 +13°C° 0 mm 2 mps 739 mmHg 77%
    01:00 +12°C° 0 mm 2 mps 739 mmHg 79%
    02:00 +12°C° 0 mm 1 mps 739 mmHg 81%
    03:00 +12°C° 0 mm 1 mps 739 mmHg 82%
    04:00 +12°C° 0 mm 1 mps 738 mmHg 83%
    05:00 +11°C° 0 mm 1 mps 738 mmHg 84%
    06:00 +12°C° 0 mm 1 mps 738 mmHg 81%
    07:00 +13°C° 0 mm 1 mps 738 mmHg 78%
    08:00 +14°C° 0 mm 1 mps 738 mmHg 71%
    09:00 +15°C° 0 mm 1 mps 738 mmHg 66%
    10:00 +18°C° 0 mm 1 mps 738 mmHg 61%
    11:00 +19°C° 0 mm 1 mps 738 mmHg 57%
    12:00 +18°C° 0.1 mm 2 mps 738 mmHg 57%
    13:00 +18°C° 0.1 mm 2 mps 738 mmHg 57%
    14:00 +18°C° 0 mm 3 mps 739 mmHg 60%
    15:00 +17°C° 0.2 mm 2 mps 739 mmHg 64%
    16:00 +16°C° 0.2 mm 2 mps 739 mmHg 67%
    17:00 +15°C° 0.2 mm 2 mps 739 mmHg 71%
    18:00 +15°C° 0.2 mm 2 mps 739 mmHg 73%
    19:00 +14°C° 0.2 mm 2 mps 739 mmHg 76%
    20:00 +13°C° 0.2 mm 2 mps 740 mmHg 78%
    21:00 +13°C° 0.2 mm 1 mps 740 mmHg 79%
    22:00 +13°C° 0.2 mm 1 mps 740 mmHg 80%
    23:00 +12°C° 0.2 mm 1 mps 740 mmHg 80%

    Tomorrow, 22 October, Monday

    Time Temperature Precipitation Wind Pressure Humidity
    00:00 +12°C° 0.2 mm 1 mps 741 mmHg 81%
    01:00 +12°C° 0.2 mm 1 mps 741 mmHg 81%
    02:00 +12°C° 0.2 mm 1 mps 741 mmHg 82%
    03:00 +12°C° 0.1 mm 1 mps 741 mmHg 83%
    04:00 +12°C° 0.1 mm 1 mps 741 mmHg 84%
    05:00 +10°C° 0.1 mm 0 mps 741 mmHg 85%
    06:00 +12°C° 0 mm 1 mps 741 mmHg 84%
    07:00 +12°C° 0 mm 1 mps 741 mmHg 82%
    08:00 +12°C° 0 mm 1 mps 741 mmHg 81%
    09:00 +13°C° 0 mm 1 mps 741 mmHg 74%
    10:00 +15°C° 0 mm 2 mps 741 mmHg 68%
    11:00 +16°C° 0 mm 2 mps 741 mmHg 61%
    12:00 +17°C° 0 mm 2 mps 741 mmHg 58%
    13:00 +17°C° 0 mm 3 mps 740 mmHg 54%
    14:00 +18°C° 0 mm 3 mps 740 mmHg 51%
    15:00 +17°C° 0 mm 2 mps 740 mmHg 52%
    16:00 +16°C° 0 mm 2 mps 740 mmHg 54%
    17:00 +16°C° 0 mm 2 mps 739 mmHg 56%
    18:00 +15°C° 0 mm 2 mps 739 mmHg 59%
    19:00 +13°C° 0 mm 1 mps 740 mmHg 62%
    20:00 +12°C° 0 mm 1 mps 740 mmHg 65%
    21:00 +12°C° 0 mm 1 mps 740 mmHg 67%
    22:00 +12°C° 0 mm 1 mps 740 mmHg 68%
    23:00 +11°C° 0 mm 1 mps 740 mmHg 69%

    Day after tomorrow, 23 October, Tuesday

    Time Temperature Precipitation Wind Pressure Humidity
    00:00 +10°C° 0 mm 0 mps 740 mmHg 71%
    01:00 +10°C° 0 mm 0 mps 740 mmHg 73%
    02:00 +9°C° 0 mm 0 mps 740 mmHg 75%
    03:00 +9°C° 0 mm 0 mps 740 mmHg 76%
    04:00 +9°C° 0 mm 0 mps 739 mmHg 77%
    05:00 +8°C° 0 mm 0 mps 739 mmHg 78%
    06:00 +9°C° 0 mm 0 mps 739 mmHg 75%
    07:00 +9°C° 0 mm 0 mps 740 mmHg 73%
    08:00 +11°C° 0 mm 1 mps 740 mmHg 71%
    09:00 +13°C° 0 mm 1 mps 740 mmHg 62%
    10:00 +15°C° 0 mm 1 mps 740 mmHg 54%
    11:00 +16°C° 0 mm 1 mps 739 mmHg 46%
    12:00 +18°C° 0 mm 1 mps 739 mmHg 43%
    13:00 +19°C° 0 mm 1 mps 738 mmHg 41%
    14:00 +18°C° 0 mm 2 mps 738 mmHg 38%
    15:00 +19°C° 0 mm 1 mps 737 mmHg 41%
    16:00 +18°C° 0 mm 1 mps 737 mmHg 44%
    17:00 +16°C° 0 mm 1 mps 736 mmHg 47%
    18:00 +15°C° 0 mm 1 mps 736 mmHg 49%
    19:00 +14°C° 0 mm 2 mps 736 mmHg 51%
    20:00 +13°C° 0 mm 2 mps 736 mmHg 54%
    21:00 +12°C° 0 mm 2 mps 736 mmHg 57%
    22:00 +11°C° 0 mm 3 mps 736 mmHg 59%
    23:00 +11°C° 0 mm 3 mps 736 mmHg 62%

    24 October, Wednesday

    Time Temperature Precipitation Wind Pressure Humidity
    00:00 +10°C° 0 mm 3 mps 735 mmHg 64%
    01:00 +10°C° 0 mm 3 mps 735 mmHg 66%
    02:00 +10°C° 0 mm 4 mps 734 mmHg 68%
    03:00 +10°C° 0 mm 4 mps 734 mmHg 69%
    04:00 +10°C° 0 mm 4 mps 734 mmHg 71%
    05:00 +8°C° 0 mm 4 mps 733 mmHg 72%
    06:00 +10°C° 0 mm 4 mps 733 mmHg 68%
    07:00 +11°C° 0 mm 4 mps 733 mmHg 64%
    08:00 +11°C° 0 mm 4 mps 732 mmHg 60%
    09:00 +13°C° 0 mm 5 mps 732 mmHg 54%
    10:00 +15°C° 0 mm 6 mps 731 mmHg 48%
    11:00 +17°C° 0 mm 7 mps 731 mmHg 42%
    12:00 +17°C° 0 mm 8 mps 730 mmHg 41%
    13:00 +18°C° 0 mm 8 mps 729 mmHg 40%
    14:00 +18°C° 0 mm 9 mps 728 mmHg 39%
    15:00 +18°C° 0 mm 8 mps 728 mmHg 41%
    16:00 +17°C° 0 mm 7 mps 728 mmHg 43%
    17:00 +16°C° 0 mm 7 mps 727 mmHg 45%
    18:00 +15°C° 0.4 mm 7 mps 728 mmHg 52%
    19:00 +12°C° 0.4 mm 7 mps 728 mmHg 58%
    20:00 +11°C° 0.4 mm 8 mps 728 mmHg 65%
    21:00 +10°C° 0.3 mm 8 mps 729 mmHg 63%
    22:00 +9°C° 0.3 mm 7 mps 730 mmHg 62%
    23:00 +8°C° 0.3 mm 7 mps 731 mmHg 60%

    25 October, Thursday

    Time Temperature Precipitation Wind Pressure Humidity
    00:00 +6°C° 0 mm 7 mps 731 mmHg 61%
    01:00 +5°C° 0 mm 7 mps 732 mmHg 62%
    02:00 +4°C° 0 mm 7 mps 732 mmHg 62%
    03:00 +4°C° 0 mm 7 mps 733 mmHg 62%
    04:00 +3°C° 0 mm 6 mps 733 mmHg 62%
    05:00 +3°C° 0 mm 6 mps 733 mmHg 62%
    06:00 +3°C° 0 mm 7 mps 734 mmHg 60%
    07:00 +3°C° 0 mm 7 mps 734 mmHg 58%
    08:00 +2°C° 0 mm 8 mps 735 mmHg 56%
    09:00 +4°C° 0 mm 8 mps 735 mmHg 50%
    10:00 +6°C° 0 mm 8 mps 736 mmHg 44%
    11:00 +7°C° 0 mm 8 mps 736 mmHg 38%
    12:00 +9°C° 0 mm 8 mps 736 mmHg 36%
    13:00 +9°C° 0 mm 8 mps 736 mmHg 34%
    14:00 +10°C° 0 mm 8 mps 736 mmHg 31%
    15:00 +9°C° 0 mm 7 mps 736 mmHg 33%
    16:00 +9°C° 0 mm 6 mps 736 mmHg 35%
    17:00 +8°C° 0 mm 5 mps 737 mmHg 37%
    18:00 +7°C° 0 mm 5 mps 737 mmHg 40%
    19:00 +6°C° 0 mm 4 mps 738 mmHg 42%
    20:00 +5°C° 0 mm 4 mps 738 mmHg 45%
    21:00 +5°C° 0 mm 4 mps 739 mmHg 46%
    22:00 +5°C° 0 mm 3 mps 739 mmHg 47%
    23:00 +5°C° 0 mm 3 mps 739 mmHg 49%

    26 October, Friday

    Time Temperature Precipitation Wind Pressure Humidity
    00:00 +4°C° 0 mm 3 mps 739 mmHg 48%
    01:00 +4°C° 0 mm 3 mps 739 mmHg 48%
    02:00 +4°C° 0 mm 3 mps 739 mmHg 48%
    03:00 +4°C° 0 mm 3 mps 739 mmHg 48%
    04:00 +5°C° 0 mm 2 mps 739 mmHg 47%
    05:00 +5°C° 0 mm 2 mps 739 mmHg 47%
    06:00 +6°C° 0 mm 2 mps 739 mmHg 46%
    07:00 +7°C° 0 mm 2 mps 739 mmHg 45%
    08:00 +7°C° 0 mm 2 mps 739 mmHg 45%
    09:00 +10°C° 0 mm 2 mps 739 mmHg 42%
    10:00 +13°C° 0 mm 2 mps 739 mmHg 40%
    11:00 +16°C° 0 mm 2 mps 739 mmHg 37%
    12:00 +17°C° 0 mm 2 mps 738 mmHg 35%
    13:00 +18°C° 0 mm 2 mps 738 mmHg 33%
    14:00 +19°C° 0 mm 2 mps 737 mmHg 30%
    15:00 +17°C° 0 mm 2 mps 737 mmHg 34%
    16:00 +16°C° 0 mm 1 mps 737 mmHg 37%
    17:00 +14°C° 0 mm 0 mps 737 mmHg 40%
    18:00 +14°C° 0 mm 1 mps 737 mmHg 41%
    19:00 +13°C° 0 mm 1 mps 738 mmHg 43%
    20:00 +12°C° 0 mm 2 mps 738 mmHg 44%
    21:00 +12°C° 0 mm 2 mps 738 mmHg 44%
    22:00 +12°C° 0 mm 2 mps 738 mmHg 44%
    23:00 +12°C° 0 mm 2 mps 738 mmHg 44%
    Show more